Location: Earls Croome
(52.0667°N, 2.2000°W)
Time: 05:51:41
(UTC+00:00)

Cosmos 1605 Rocket - Pass Details

Date: 17 November 2019
Orbit: 944 x 1006 km, 82.9° (Epoch: 12 December)

Event Time Altitude Azimuth Distance (km) Brightness Sun altitude
Exits shadow 05:21:55 21° 231° (SW) 1,998 5.2 -19.6°
Maximum altitude 05:25:33 42° 290° (WNW) 1,349 4.3 -19.1°
Drops below altitude 10° 05:31:21 10° 0° (N) 2,686 6.2 -18.2°
Sets 05:34:00 0° 8° (N) 3,631 7.0 -17.8°
